Location: Poughquag
(41.6090°N, 73.6820°W)
Time: 20:12:17

N. Korean satellite - Visible Passes

Search period start: 21 March 2018 00:00
Search period end: 31 March 2018 00:00
Orbit: 460 x 512 km, 97.2° (Epoch: 21 March)

Date Brightness Start Highest point End Pass type
(mag) Time Alt. Az. Time Alt. Az. Time Alt. Az.
21 Mar 9.8 19:36:51 10° SW 19:39:36 20° W 19:42:24 10° NW visible
24 Mar 10.4 20:00:45 10° WSW 20:01:48 11° W 20:02:50 10° WNW visible
28 Mar 10.3 19:58:33 10° WSW 19:59:54 12° W 20:01:14 10° WNW visible
